KOREASAT 6

Last updated on Fri Dec 19 2025 00:02:50 GMT+0000 (Coordinated Universal Time)

1 37265U 10070B 25352.63141975 -.00000086 00000+0 00000+0 0 9997 2 37265 0.0155 49.0175 0002092 238.6038 187.0627 1.00272081 54961
UTC large
Height (km)
Speed (km/s)
/
Latitude / Longitude
Inclination (degrees)
Orbital Period (minutes)
Azimuth
Elevation
Range (km)
Doppler Factor

Next 0 passes for location: London (51.5072 / 0.1276)

Sorry there are no passes over London.